SWA3182 KLAX-KDEN

Flight info

Callsign SWA3182
Flight time 1h 58m
Altitude 39000
Route ORCKA5 LAS J146 DICEE BUMMP SSKII4
Aircraft B737/M-SDE2E3FGHIRWXY/LB1

Departure

Time 2026-05-07 20:32
Airport Los Angeles International Airport (KLAX)

Arrival

Time 2026-05-07 22:30
Airport Denver International Airport (KDEN)
Time Latitude Longitude Altitude Speed Heading
2026-05-07 20:05 33.94687 -118.40187 134 ft 0 kts 82°
2026-05-07 20:12 33.94686 -118.40199 121 ft 2 kts 82°
2026-05-07 20:12 33.94683 -118.40220 123 ft 3 kts 63°
2026-05-07 20:13 33.94671 -118.40237 119 ft 3 kts 27°
2026-05-07 20:13 33.94653 -118.40244 123 ft 3 kts
2026-05-07 20:13 33.94638 -118.40244 123 ft 1 kts 353°
2026-05-07 20:13 33.94634 -118.40243 124 ft 0 kts 353°
2026-05-07 20:29 33.94639 -118.40244 125 ft 6 kts 352°
2026-05-07 20:29 33.94699 -118.40253 123 ft 9 kts 354°
2026-05-07 20:29 33.94762 -118.40261 123 ft 9 kts 353°
2026-05-07 20:29 33.94822 -118.40276 122 ft 9 kts 343°
2026-05-07 20:30 33.94880 -118.40289 123 ft 8 kts 17°
2026-05-07 20:30 33.94906 -118.40192 121 ft 15 kts 83°
2026-05-07 20:30 33.94919 -118.40065 122 ft 15 kts 83°
2026-05-07 20:30 33.94931 -118.39966 125 ft 10 kts 75°
2026-05-07 20:31 33.94963 -118.39917 125 ft 6 kts 31°
2026-05-07 20:31 33.95016 -118.39915 122 ft 11 kts 352°
2026-05-07 20:31 33.95038 -118.39993 125 ft 12 kts 264°
2026-05-07 20:31 33.94987 -118.40494 122 ft 114 kts 263°
2026-05-07 20:32 33.94856 -118.41814 312 ft 192 kts 263°
2026-05-07 20:32 33.94681 -118.43497 1324 ft 224 kts 262°
2026-05-07 20:32 33.94485 -118.45372 2682 ft 226 kts 263°
2026-05-07 20:32 33.94291 -118.47338 3043 ft 240 kts 264°
2026-05-07 20:33 33.94094 -118.49367 3852 ft 242 kts 264°
2026-05-07 20:33 33.93896 -118.51380 4655 ft 241 kts 263°
2026-05-07 20:33 33.93694 -118.53368 4951 ft 239 kts 263°
2026-05-07 20:33 33.93335 -118.55321 4962 ft 246 kts 243°
2026-05-07 20:34 33.92097 -118.56879 5006 ft 271 kts 212°
2026-05-07 20:34 33.90301 -118.57573 5019 ft 276 kts 185°
2026-05-07 20:34 33.88396 -118.57186 5298 ft 286 kts 157°
2026-05-07 20:34 33.86785 -118.55786 6506 ft 286 kts 131°
2026-05-07 20:35 33.85875 -118.53711 7814 ft 282 kts 101°
2026-05-07 20:35 33.85978 -118.51385 8957 ft 281 kts 68°
2026-05-07 20:35 33.87073 -118.49467 10081 ft 281 kts 41°
2026-05-07 20:35 33.88624 -118.47956 10862 ft 297 kts 37°
2026-05-07 20:36 33.88987 -118.47621 10935 ft 303 kts 37°
2026-05-07 20:36 33.90719 -118.46013 11188 ft 333 kts 38°
2026-05-07 20:37 33.92550 -118.44201 11804 ft 346 kts 44°
2026-05-07 20:37 33.94075 -118.41940 12751 ft 349 kts 56°
2026-05-07 20:37 33.95362 -118.39450 13732 ft 353 kts 58°
2026-05-07 20:37 33.96692 -118.36931 14474 ft 360 kts 56°
2026-05-07 20:38 33.98153 -118.34459 15328 ft 363 kts 54°
2026-05-07 20:38 33.99625 -118.32024 16186 ft 365 kts 54°
2026-05-07 20:38 34.01098 -118.29517 17024 ft 369 kts 55°
2026-05-07 20:38 34.02568 -118.26956 17834 ft 373 kts 55°
2026-05-07 20:39 34.04040 -118.24357 18615 ft 377 kts 56°
2026-05-07 20:39 34.05525 -118.21725 19283 ft 382 kts 55°
2026-05-07 20:39 34.07026 -118.19064 19934 ft 387 kts 55°
2026-05-07 20:39 34.08550 -118.16366 20585 ft 392 kts 55°
2026-05-07 20:40 34.10093 -118.13636 21252 ft 396 kts 55°
2026-05-07 20:40 34.11651 -118.10877 21907 ft 400 kts 55°
2026-05-07 20:40 34.13226 -118.08087 22530 ft 404 kts 55°
2026-05-07 20:40 34.14817 -118.05267 23141 ft 409 kts 55°
2026-05-07 20:41 34.16425 -118.02413 23719 ft 413 kts 55°
2026-05-07 20:41 34.18048 -117.99531 24223 ft 417 kts 55°
2026-05-07 20:41 34.19685 -117.96620 24774 ft 419 kts 55°
2026-05-07 20:41 34.21329 -117.93693 25321 ft 422 kts 55°
2026-05-07 20:42 34.22982 -117.90750 25849 ft 425 kts 55°
2026-05-07 20:42 34.24652 -117.87772 26338 ft 429 kts 55°
2026-05-07 20:42 34.26330 -117.84780 26821 ft 432 kts 55°
2026-05-07 20:42 34.28023 -117.81757 27294 ft 435 kts 55°
2026-05-07 20:43 34.29724 -117.78715 27696 ft 439 kts 55°
2026-05-07 20:43 34.31440 -117.75645 28130 ft 442 kts 55°
2026-05-07 20:43 34.33168 -117.72553 28597 ft 445 kts 54°
2026-05-07 20:43 34.34903 -117.69445 29050 ft 447 kts 54°
2026-05-07 20:44 34.36681 -117.66337 29469 ft 450 kts 53°
2026-05-07 20:44 34.38487 -117.63297 29875 ft 453 kts 52°
2026-05-07 20:44 34.40354 -117.60205 30260 ft 456 kts 52°
2026-05-07 20:44 34.42230 -117.57107 30621 ft 457 kts 52°
2026-05-07 20:45 34.44106 -117.53998 31112 ft 455 kts 52°
2026-05-07 20:45 34.45960 -117.50909 31704 ft 451 kts 52°
2026-05-07 20:45 34.47793 -117.47841 32281 ft 448 kts 53°
2026-05-07 20:45 34.49612 -117.44786 32766 ft 446 kts 53°
2026-05-07 20:46 34.51429 -117.41729 33190 ft 446 kts 53°
2026-05-07 20:46 34.53237 -117.38681 33634 ft 445 kts 53°
2026-05-07 20:46 34.55038 -117.35642 34094 ft 443 kts 53°
2026-05-07 20:46 34.56834 -117.32610 34470 ft 442 kts 53°
2026-05-07 20:47 34.58627 -117.29583 34778 ft 442 kts 53°
2026-05-07 20:47 34.60423 -117.26547 35075 ft 442 kts 53°
2026-05-07 20:47 34.62215 -117.23516 35392 ft 441 kts 53°
2026-05-07 20:47 34.63998 -117.20496 35734 ft 440 kts 53°
2026-05-07 20:48 34.65782 -117.17473 36040 ft 440 kts 53°
2026-05-07 20:48 34.67562 -117.14454 36326 ft 440 kts 53°
2026-05-07 20:48 34.69339 -117.11437 36628 ft 439 kts 53°
2026-05-07 20:48 34.71112 -117.08426 36972 ft 437 kts 53°
2026-05-07 20:49 34.72876 -117.05426 37276 ft 436 kts 53°
2026-05-07 20:49 34.74642 -117.02420 37561 ft 437 kts 53°
2026-05-07 20:49 34.76403 -116.99421 37861 ft 436 kts 53°
2026-05-07 20:49 34.78163 -116.96420 38197 ft 435 kts 53°
2026-05-07 20:50 34.79915 -116.93432 38527 ft 433 kts 53°
2026-05-07 20:50 34.81666 -116.90440 38794 ft 433 kts 53°
2026-05-07 20:50 34.83390 -116.87494 38996 ft 434 kts 53°
2026-05-07 20:51 34.86918 -116.81457 39022 ft 439 kts 53°
2026-05-07 20:51 34.90442 -116.75417 39017 ft 434 kts 53°
2026-05-07 20:52 34.94147 -116.69679 39025 ft 428 kts 46°
2026-05-07 20:52 34.98293 -116.64489 38998 ft 427 kts 45°
2026-05-07 20:53 35.02371 -116.59240 38988 ft 426 kts 46°
2026-05-07 20:53 35.06368 -116.53905 38992 ft 426 kts 46°
2026-05-07 20:54 35.10375 -116.48561 38999 ft 427 kts 46°
2026-05-07 20:54 35.14414 -116.43199 38999 ft 429 kts 46°
2026-05-07 20:55 35.18469 -116.37824 38993 ft 431 kts 46°
2026-05-07 20:55 35.22514 -116.32455 38985 ft 432 kts 46°
2026-05-07 20:56 35.26589 -116.27036 38974 ft 433 kts 46°
2026-05-07 20:56 35.30674 -116.21593 38962 ft 434 kts 46°
2026-05-07 20:57 35.34753 -116.16151 38967 ft 434 kts 46°
2026-05-07 20:57 35.38827 -116.10707 38963 ft 433 kts 46°
2026-05-07 20:58 35.42895 -116.05262 38970 ft 432 kts 46°
2026-05-07 20:58 35.46945 -115.99832 38979 ft 431 kts 47°
2026-05-07 20:59 35.50988 -115.94402 38990 ft 430 kts 47°
2026-05-07 20:59 35.55024 -115.88974 38982 ft 430 kts 47°
2026-05-07 21:00 35.59053 -115.83545 39000 ft 429 kts 47°
2026-05-07 21:00 35.63071 -115.78124 39002 ft 429 kts 47°
2026-05-07 21:01 35.67037 -115.72715 39011 ft 428 kts 47°
2026-05-07 21:01 35.71008 -115.67250 39007 ft 428 kts 47°
2026-05-07 21:02 35.74971 -115.61789 39008 ft 428 kts 47°
2026-05-07 21:02 35.78941 -115.56316 39014 ft 428 kts 47°
2026-05-07 21:03 35.82906 -115.50845 39018 ft 428 kts 47°
2026-05-07 21:03 35.86868 -115.45368 39023 ft 428 kts 47°
2026-05-07 21:04 35.90834 -115.39877 39034 ft 428 kts 47°
2026-05-07 21:04 35.94790 -115.34391 39034 ft 428 kts 47°
2026-05-07 21:05 35.98755 -115.28882 39034 ft 429 kts 47°
2026-05-07 21:05 36.02703 -115.23388 39009 ft 428 kts 47°
2026-05-07 21:06 36.06636 -115.17848 39003 ft 428 kts 50°
2026-05-07 21:06 36.09557 -115.11444 39029 ft 432 kts 69°
2026-05-07 21:07 36.11368 -115.04352 39017 ft 432 kts 68°
2026-05-07 21:07 36.13563 -114.97457 38954 ft 431 kts 65°
2026-05-07 21:08 36.15785 -114.90560 38951 ft 431 kts 67°
2026-05-07 21:08 36.17901 -114.83610 38935 ft 432 kts 67°
2026-05-07 21:09 36.20003 -114.76701 38927 ft 432 kts 67°
2026-05-07 21:09 36.22135 -114.69763 38905 ft 432 kts 67°
2026-05-07 21:10 36.24264 -114.62820 38904 ft 431 kts 67°
2026-05-07 21:10 36.26389 -114.55868 38905 ft 431 kts 67°
2026-05-07 21:11 36.28508 -114.48911 38906 ft 432 kts 67°
2026-05-07 21:11 36.31682 -114.38453 38906 ft 432 kts 67°
2026-05-07 21:12 36.33794 -114.31475 38911 ft 432 kts 67°
2026-05-07 21:12 36.35899 -114.24501 38921 ft 432 kts 67°
2026-05-07 21:13 36.38003 -114.17512 38920 ft 432 kts 67°
2026-05-07 21:13 36.40104 -114.10519 38925 ft 432 kts 67°
2026-05-07 21:14 36.42186 -114.03569 38933 ft 432 kts 67°
2026-05-07 21:14 36.44273 -113.96586 38941 ft 431 kts 67°
2026-05-07 21:15 36.46358 -113.89592 38944 ft 431 kts 67°
2026-05-07 21:15 36.48439 -113.82596 38963 ft 432 kts 67°
2026-05-07 21:16 36.50515 -113.75597 38968 ft 432 kts 67°
2026-05-07 21:16 36.52240 -113.69767 38967 ft 432 kts 67°
2026-05-07 21:17 36.54314 -113.62744 38973 ft 432 kts 67°
2026-05-07 21:17 36.56382 -113.55723 38976 ft 432 kts 67°
2026-05-07 21:18 36.58448 -113.48691 38982 ft 433 kts 67°
2026-05-07 21:18 36.60510 -113.41654 38986 ft 433 kts 67°
2026-05-07 21:19 36.62570 -113.34610 38987 ft 433 kts 67°
2026-05-07 21:19 36.64620 -113.27544 38987 ft 434 kts 67°
2026-05-07 21:20 36.66660 -113.20472 39009 ft 434 kts 68°
2026-05-07 21:20 36.68695 -113.13399 39034 ft 434 kts 68°
2026-05-07 21:21 36.70718 -113.06355 39056 ft 434 kts 68°
2026-05-07 21:21 36.72747 -112.99271 39064 ft 434 kts 68°
2026-05-07 21:22 36.74774 -112.92179 39080 ft 434 kts 68°
2026-05-07 21:22 36.76798 -112.85077 39076 ft 435 kts 68°
2026-05-07 21:23 36.78819 -112.77968 39056 ft 435 kts 68°
2026-05-07 21:23 36.80836 -112.70852 39042 ft 435 kts 68°
2026-05-07 21:24 36.82851 -112.63726 39019 ft 435 kts 68°
2026-05-07 21:24 36.84862 -112.56597 39003 ft 436 kts 68°
2026-05-07 21:25 36.86871 -112.49452 39007 ft 436 kts 68°
2026-05-07 21:25 36.88880 -112.42297 39003 ft 437 kts 68°
2026-05-07 21:26 36.90878 -112.35183 39001 ft 437 kts 68°
2026-05-07 21:26 36.92891 -112.28006 39003 ft 438 kts 68°
2026-05-07 21:27 36.94902 -112.20822 39003 ft 438 kts 68°
2026-05-07 21:27 36.96910 -112.13629 38997 ft 438 kts 68°
2026-05-07 21:28 36.98915 -112.06426 38995 ft 439 kts 68°
2026-05-07 21:28 37.00917 -111.99210 38989 ft 439 kts 68°
2026-05-07 21:29 37.02918 -111.91985 38990 ft 439 kts 68°
2026-05-07 21:29 37.04901 -111.84802 38986 ft 439 kts 68°
2026-05-07 21:30 37.06891 -111.77573 39021 ft 439 kts 68°
2026-05-07 21:30 37.08878 -111.70335 39026 ft 440 kts 68°
2026-05-07 21:31 37.10863 -111.63085 39039 ft 440 kts 68°
2026-05-07 21:31 37.12844 -111.55830 39046 ft 440 kts 68°
2026-05-07 21:32 37.14821 -111.48567 39040 ft 441 kts 68°
2026-05-07 21:32 37.16795 -111.41297 39037 ft 440 kts 68°
2026-05-07 21:33 37.18763 -111.34031 39013 ft 441 kts 68°
2026-05-07 21:33 37.20730 -111.26748 39002 ft 441 kts 68°
2026-05-07 21:34 37.22823 -111.19581 38977 ft 439 kts 63°
2026-05-07 21:34 37.25552 -111.12695 38975 ft 437 kts 59°
2026-05-07 21:35 37.28367 -111.05986 38980 ft 438 kts 59°
2026-05-07 21:35 37.31152 -110.99168 38976 ft 439 kts 60°
2026-05-07 21:36 37.33887 -110.92311 38980 ft 439 kts 60°
2026-05-07 21:36 37.36606 -110.85430 38978 ft 440 kts 60°
2026-05-07 21:37 37.39322 -110.78539 38976 ft 440 kts 60°
2026-05-07 21:37 37.42037 -110.71643 38983 ft 439 kts 60°
2026-05-07 21:38 37.44748 -110.64746 38981 ft 440 kts 60°
2026-05-07 21:38 37.47456 -110.57841 38992 ft 440 kts 60°
2026-05-07 21:39 37.50166 -110.50916 38983 ft 441 kts 60°
2026-05-07 21:39 37.52872 -110.43986 38993 ft 441 kts 60°
2026-05-07 21:40 37.55558 -110.37089 38993 ft 442 kts 60°
2026-05-07 21:40 37.58260 -110.30140 38998 ft 441 kts 60°
2026-05-07 21:41 37.60955 -110.23191 39001 ft 441 kts 60°
2026-05-07 21:41 37.63645 -110.16240 39019 ft 441 kts 60°
2026-05-07 21:42 37.66335 -110.09271 39021 ft 441 kts 60°
2026-05-07 21:42 37.69019 -110.02305 39033 ft 442 kts 60°
2026-05-07 21:43 37.71702 -109.95326 39030 ft 442 kts 60°
2026-05-07 21:43 37.74382 -109.88337 39042 ft 442 kts 60°
2026-05-07 21:44 37.77061 -109.81334 39053 ft 443 kts 60°
2026-05-07 21:44 37.79741 -109.74316 39068 ft 444 kts 60°
2026-05-07 21:45 37.82422 -109.67277 39068 ft 444 kts 60°
2026-05-07 21:45 37.85079 -109.60284 39077 ft 444 kts 60°
2026-05-07 21:46 37.87752 -109.53236 39071 ft 444 kts 60°
2026-05-07 21:46 37.90422 -109.46176 39067 ft 444 kts 60°
2026-05-07 21:47 37.93088 -109.39113 39048 ft 445 kts 60°
2026-05-07 21:47 37.95752 -109.32038 39050 ft 444 kts 60°
2026-05-07 21:48 37.98409 -109.24965 39047 ft 444 kts 60°
2026-05-07 21:48 38.01060 -109.17890 39049 ft 444 kts 60°
2026-05-07 21:49 38.03707 -109.10811 39051 ft 445 kts 60°
2026-05-07 21:49 38.06356 -109.03710 39051 ft 446 kts 60°
2026-05-07 21:50 38.09009 -108.96584 39054 ft 447 kts 60°
2026-05-07 21:50 38.11703 -108.89465 39035 ft 447 kts 59°
2026-05-07 21:51 38.14497 -108.82406 39030 ft 448 kts 59°
2026-05-07 21:51 38.17301 -108.75339 39038 ft 448 kts 59°
2026-05-07 21:52 38.20090 -108.68247 39048 ft 449 kts 59°
2026-05-07 21:52 38.22871 -108.61135 39043 ft 449 kts 59°
2026-05-07 21:53 38.25649 -108.54007 39047 ft 450 kts 59°
2026-05-07 21:53 38.28426 -108.46870 39050 ft 450 kts 59°
2026-05-07 21:54 38.31176 -108.39785 39054 ft 450 kts 59°
2026-05-07 21:54 38.33943 -108.32640 39054 ft 450 kts 59°
2026-05-07 21:55 38.36704 -108.25494 39069 ft 450 kts 59°
2026-05-07 21:55 38.39468 -108.18327 39096 ft 450 kts 59°
2026-05-07 21:56 38.42226 -108.11155 39117 ft 451 kts 59°
2026-05-07 21:56 38.44983 -108.03971 39147 ft 451 kts 59°
2026-05-07 21:57 38.47735 -107.96758 39175 ft 452 kts 59°
2026-05-07 21:57 38.50467 -107.89525 39167 ft 453 kts 59°
2026-05-07 21:58 38.53197 -107.82274 39171 ft 453 kts 59°
2026-05-07 21:58 38.55927 -107.75018 39153 ft 453 kts 59°
2026-05-07 21:59 38.58654 -107.67752 39121 ft 454 kts 59°
2026-05-07 21:59 38.61387 -107.60455 39105 ft 455 kts 59°
2026-05-07 22:00 38.64113 -107.53158 39070 ft 455 kts 59°
2026-05-07 22:00 38.66848 -107.45847 39051 ft 455 kts 59°
2026-05-07 22:01 38.69596 -107.38602 39076 ft 456 kts 59°
2026-05-07 22:01 38.72367 -107.31299 39073 ft 457 kts 59°
2026-05-07 22:02 38.75128 -107.23984 39089 ft 456 kts 59°
2026-05-07 22:02 38.77882 -107.16664 39080 ft 456 kts 59°
2026-05-07 22:03 38.80631 -107.09337 39105 ft 456 kts 59°
2026-05-07 22:03 38.83377 -107.02000 39116 ft 456 kts 59°
2026-05-07 22:04 38.86125 -106.94640 39092 ft 456 kts 59°
2026-05-07 22:04 38.88860 -106.87296 39094 ft 455 kts 59°
2026-05-07 22:05 38.91589 -106.79953 39096 ft 456 kts 59°
2026-05-07 22:05 38.93856 -106.73836 39107 ft 456 kts 59°
2026-05-07 22:06 38.96568 -106.66506 39117 ft 457 kts 59°
2026-05-07 22:06 38.99306 -106.59092 38502 ft 464 kts 59°
2026-05-07 22:07 39.00682 -106.55352 37868 ft 462 kts 59°
2026-05-07 22:07 39.02044 -106.51630 37202 ft 459 kts 59°
2026-05-07 22:07 39.03400 -106.47917 36508 ft 458 kts 59°
2026-05-07 22:07 39.04757 -106.44203 35747 ft 459 kts 59°
2026-05-07 22:08 39.06120 -106.40471 34925 ft 462 kts 59°
2026-05-07 22:08 39.07489 -106.36718 34018 ft 465 kts 59°
2026-05-07 22:08 39.08867 -106.32937 33021 ft 468 kts 59°
2026-05-07 22:08 39.10248 -106.29141 32038 ft 469 kts 59°
2026-05-07 22:09 39.11632 -106.25329 31040 ft 471 kts 60°
2026-05-07 22:09 39.13011 -106.21522 30400 ft 465 kts 60°
2026-05-07 22:09 39.14372 -106.17758 29508 ft 462 kts 60°
2026-05-07 22:09 39.15718 -106.14034 28845 ft 454 kts 60°
2026-05-07 22:10 39.17029 -106.10388 28220 ft 445 kts 60°
2026-05-07 22:10 39.18308 -106.06829 27626 ft 440 kts 60°
2026-05-07 22:10 39.19584 -106.03274 27029 ft 436 kts 60°
2026-05-07 22:10 39.20859 -105.99726 26453 ft 436 kts 60°
2026-05-07 22:11 39.22136 -105.96168 25861 ft 437 kts 60°
2026-05-07 22:11 39.23408 -105.92615 25271 ft 434 kts 60°
2026-05-07 22:11 39.24666 -105.89101 24794 ft 429 kts 60°
2026-05-07 22:11 39.25912 -105.85639 24340 ft 423 kts 60°
2026-05-07 22:12 39.27147 -105.82214 23932 ft 419 kts 60°
2026-05-07 22:12 39.28375 -105.78808 23472 ft 419 kts 60°
2026-05-07 22:12 39.29609 -105.75384 23011 ft 420 kts 60°
2026-05-07 22:12 39.30831 -105.71981 22568 ft 416 kts 61°
2026-05-07 22:13 39.32035 -105.68619 22137 ft 406 kts 61°
2026-05-07 22:13 39.33207 -105.65353 21752 ft 396 kts 60°
2026-05-07 22:13 39.34367 -105.62170 21391 ft 387 kts 60°
2026-05-07 22:13 39.35506 -105.59059 21014 ft 379 kts 60°
2026-05-07 22:14 39.36630 -105.55993 20661 ft 375 kts 60°
2026-05-07 22:14 39.37742 -105.52954 20313 ft 373 kts 60°
2026-05-07 22:14 39.38845 -105.49929 19956 ft 371 kts 60°
2026-05-07 22:14 39.39942 -105.46913 19601 ft 369 kts 60°
2026-05-07 22:15 39.41022 -105.43934 19258 ft 363 kts 62°
2026-05-07 22:15 39.41799 -105.40834 18780 ft 368 kts 81°
2026-05-07 22:15 39.41819 -105.37556 18552 ft 360 kts 89°
2026-05-07 22:15 39.41713 -105.34310 17974 ft 361 kts 90°
2026-05-07 22:16 39.41655 -105.31092 17592 ft 355 kts 88°
2026-05-07 22:16 39.41678 -105.27921 17158 ft 351 kts 86°
2026-05-07 22:16 39.41721 -105.24791 16771 ft 346 kts 87°
2026-05-07 22:16 39.41761 -105.21704 16398 ft 342 kts 87°
2026-05-07 22:17 39.41791 -105.18638 15990 ft 339 kts 87°
2026-05-07 22:17 39.41814 -105.15610 15619 ft 335 kts 88°
2026-05-07 22:17 39.41831 -105.12618 15280 ft 331 kts 88°
2026-05-07 22:17 39.41844 -105.09677 14908 ft 331 kts 88°
2026-05-07 22:18 39.41856 -105.06704 14540 ft 330 kts 88°
2026-05-07 22:18 39.41877 -105.00810 13829 ft 326 kts 88°
2026-05-07 22:18 39.41885 -104.97885 13419 ft 324 kts 88°
2026-05-07 22:19 39.41894 -104.94982 13068 ft 320 kts 88°
2026-05-07 22:19 39.42013 -104.92194 13021 ft 300 kts 82°
2026-05-07 22:19 39.42258 -104.89594 12896 ft 283 kts 80°
2026-05-07 22:19 39.42500 -104.87140 12800 ft 267 kts 81°
2026-05-07 22:20 39.42725 -104.84827 12682 ft 253 kts 81°
2026-05-07 22:20 39.42929 -104.82625 12586 ft 240 kts 81°
2026-05-07 22:20 39.43116 -104.80541 12472 ft 228 kts 80°
2026-05-07 22:20 39.43296 -104.78522 12172 ft 226 kts 81°
2026-05-07 22:21 39.43478 -104.76515 11861 ft 223 kts 79°
2026-05-07 22:21 39.43946 -104.74632 11536 ft 219 kts 60°
2026-05-07 22:21 39.44597 -104.72875 11281 ft 215 kts 62°
2026-05-07 22:21 39.45182 -104.71088 11022 ft 216 kts 65°
2026-05-07 22:22 39.45786 -104.69332 11007 ft 211 kts 48°
2026-05-07 22:22 39.46941 -104.68401 11044 ft 194 kts
2026-05-07 22:22 39.48285 -104.68086 11006 ft 199 kts
2026-05-07 22:22 39.49625 -104.67692 11015 ft 196 kts
2026-05-07 22:23 39.50948 -104.67256 11008 ft 195 kts
2026-05-07 22:23 39.52260 -104.66818 11002 ft 194 kts
2026-05-07 22:23 39.53579 -104.66512 10986 ft 192 kts
2026-05-07 22:23 39.54934 -104.66395 10712 ft 199 kts 357°
2026-05-07 22:24 39.56303 -104.66368 10465 ft 195 kts 356°
2026-05-07 22:24 39.57648 -104.66355 10189 ft 192 kts 355°
2026-05-07 22:24 39.58970 -104.66342 9940 ft 188 kts 356°
2026-05-07 22:24 39.60269 -104.66326 9678 ft 185 kts 355°
2026-05-07 22:25 39.61541 -104.66311 9425 ft 180 kts 355°
2026-05-07 22:25 39.62771 -104.66295 9205 ft 174 kts 355°
2026-05-07 22:25 39.63988 -104.66282 8995 ft 174 kts 356°
2026-05-07 22:25 39.65166 -104.66268 8768 ft 170 kts 355°
2026-05-07 22:26 39.66355 -104.66257 8544 ft 169 kts 355°
2026-05-07 22:26 39.67526 -104.66243 8391 ft 165 kts 355°
2026-05-07 22:26 39.68664 -104.66228 8223 ft 169 kts 354°
2026-05-07 22:26 39.69864 -104.66215 7981 ft 169 kts 355°
2026-05-07 22:27 39.71020 -104.66200 7816 ft 169 kts 355°
2026-05-07 22:27 39.72197 -104.66181 7573 ft 164 kts 355°
2026-05-07 22:27 39.73329 -104.66166 7306 ft 159 kts 355°
2026-05-07 22:27 39.74408 -104.66154 7120 ft 154 kts 355°
2026-05-07 22:28 39.75462 -104.66142 6928 ft 150 kts 354°
2026-05-07 22:28 39.76517 -104.66128 6707 ft 153 kts 355°
2026-05-07 22:28 39.77583 -104.66093 6497 ft 153 kts 356°
2026-05-07 22:28 39.78655 -104.66075 6289 ft 153 kts 354°
2026-05-07 22:29 39.79707 -104.66090 6051 ft 150 kts 353°
2026-05-07 22:29 39.80732 -104.66078 5929 ft 147 kts 356°
2026-05-07 22:29 39.81765 -104.66064 5685 ft 148 kts 360°
2026-05-07 22:29 39.82768 -104.66054 5489 ft 141 kts
2026-05-07 22:30 39.83708 -104.66046 5415 ft 123 kts
2026-05-07 22:30 39.84414 -104.66033 5412 ft 80 kts
2026-05-07 22:30 39.84826 -104.66030 5405 ft 38 kts 359°
2026-05-07 22:30 39.85060 -104.66044 5399 ft 33 kts 349°
2026-05-07 22:31 39.85260 -104.66135 5390 ft 29 kts 333°
2026-05-07 22:31 39.85439 -104.66235 5394 ft 27 kts 350°
2026-05-07 22:31 39.85548 -104.66238 5392 ft 7 kts 359°
2026-05-07 22:31 39.85583 -104.66273 5393 ft 7 kts 290°
2026-05-07 22:32 39.85595 -104.66341 5384 ft 3 kts 316°
2026-05-07 22:33 39.85610 -104.66349 5391 ft 10 kts 344°
2026-05-07 22:33 39.85685 -104.66352 5391 ft 11 kts
2026-05-07 22:34 39.85762 -104.66350 5391 ft 12 kts
2026-05-07 22:34 39.85885 -104.66351 5388 ft 20 kts 359°
2026-05-07 22:34 39.86014 -104.66395 5385 ft 20 kts 290°
2026-05-07 22:34 39.86017 -104.66458 5386 ft 4 kts 270°
2026-05-07 22:35 39.86024 -104.66511 5382 ft 9 kts 286°
2026-05-07 22:35 39.86053 -104.66589 5386 ft 13 kts 290°
2026-05-07 22:35 39.86059 -104.66758 5386 ft 20 kts 270°
2026-05-07 22:35 39.86061 -104.66935 5386 ft 19 kts 271°
2026-05-07 22:36 39.86063 -104.67106 5386 ft 19 kts 270°
2026-05-07 22:36 39.86064 -104.67271 5386 ft 18 kts 270°
2026-05-07 22:36 39.86067 -104.67431 5386 ft 17 kts 269°
2026-05-07 22:36 39.86121 -104.67554 5385 ft 17 kts 341°
2026-05-07 22:37 39.86217 -104.67593 5385 ft 7 kts 359°
2026-05-07 22:37 39.86241 -104.67582 5385 ft 3 kts 25°
2026-05-07 22:37 39.86253 -104.67575 5385 ft 0 kts 25°
2026-05-07 22:37 39.86260 -104.67570 5383 ft 0 kts 25°